CZ-6A DEB, 56660

Orbit data source: Space-Track

CZ-6A DEB, 56660 is space debris in SSO originally from a launch on Fri, 11 Nov 2022 UTC launched from the Taiyaun Space Center, China (TSC). Debris objects in space refer to the collection of defunct objects orbiting the Earth. Examples of debris include non-operational satellites, rocket bodies, and fragments generated from explosions, collisions, or faulty payload assembly.

Loading next visibility...
Identifier
56660, 2022-151AGL
Orbit
SSO
Country
Flag of CNCN / PRC
Related business
Manufacturer
SAST
Mission
Spacecraft
Bus & Motor
Unknown
Mass
Unknown
Launch date (UTC)
2022-11-11 (4 years ago)
Launch vehicle
Unknown
Launch site
Taiyaun Space Center, China (TSC)
Object type
Payload
Rocket body
Debris
Shape & HBR
Unknown shape, 0.1 m
Radar Cross Section
Small (<0.1 m²)

Expand to show TLE details & history
Last TLE update: 2 days ago

TLE from 2 days ago
0 CZ-6A DEB
1 56660U 22151AGL 26261.87711769  .00001424  00000-0  46237-3 0  9993
2 56660  98.6620 285.3070 0103225 172.2011 188.0810 14.37443467177855
Epoch: 2026-09-18T21:03Z
TLE epoch observation values (Epoch: 2026-09-18T21:03:02.968Z)
Latitude
-0.00003°
Longitude
-28.24907°
Altitude
842.951 km
Speed
7.393 km/s
True Right ascension
19h 01m 13s
True Declination
0° 00' 00"
Sunlit
Object was in daylight at epoch
Visualization orbit readout
Latitude
Unknown
Longitude
Unknown
Altitude
Unknown
Speed
Unknown
Apparent Right ascension
Unknown
Apparent Declination
Unknown
Sunlit
N/A
Visualization observer readout
Local Sidereal Time
06:09:47
Azimuth
Unknown
Elevation
Unknown
Doppler factor
Unknown
Orbital elements
Apogee altitude
837.816 km
Perigee altitude
690.365 km
Semi-major axis
7,142.227 km
Eccentricity
0.01032
Inclination
98.662°
RAAN
285.307°
Arg. of periapsis
172.2011°
True anomaly
187.91682°
Mean anomaly
188.081°
Eccentric anomaly
187.9987°
Mean motion
3.59578 °/min
Orbital period
100.12 mins
BSTAR
0.00046237
Loading maneuver chart data...
Computing Atmospheric mass density...
Loading historical data...
Loading historical data...
Loading historical data...
Loading historical data...
Loading historical data...
Loading historical data...
Loading historical data...

Documentation

Showing up to 5 results
|